Printer-friendly version
Follow the MPC on Twitter Follow the MPC on Facebook The MPC blog
Minor Planet Center

MPEC 2005-W92 : 2005 WZ55

The following Minor Planet Electronic Circular may be linked-to from your own Web pages, but must not otherwise be redistributed electronically.

A form allowing access to any MPEC is at the bottom of this page.


Read MPEC 2005-W91 Read MPEC 2005-W93


M.P.E.C. 2005-W92                                Issued 2005 Nov. 30, 00:45 UT

     The Minor Planet Electronic Circulars contain information on unusual
         minor planets and routine data on comets.  They are published
   on behalf of Commission 20 of the International Astronomical Union by the
          Minor Planet Center, Smithsonian Astrophysical Observatory,
                          Cambridge, MA 02138, U.S.A.

                  Supported in part by the Brinson Foundation
                  Supported in part by the TABASGO Foundation
             Prepared using the Tamkin Foundation Computer Network

                              MPC@CFA.HARVARD.EDU
          URL http://cfa-www.harvard.edu/iau/mpc.html  ISSN 1523-6714

                                   2005 WZ55

Observations:
     K05W55Z* C2005 11 28.23784 03 32 17.94 +28 52 50.1          19.2   EW092704
     K05W55Z  C2005 11 28.25151 03 32 26.38 +28 51 09.8          19.7   EW092704
     K05W55Z  C2005 11 28.26496 03 32 34.63 +28 49 32.4          19.5   EW092704
     K05W55Z  C2005 11 28.27860 03 32 42.99 +28 47 52.8          19.5   EW092704
     K05W55Z  C2005 11 28.29237 03 32 51.47 +28 46 12.6          19.8   EW092704
     K05W55Z  C2005 11 29.25369 03 43 16.24 +26 49 10.2          19.3   EW092704
     K05W55Z  C2005 11 29.26662 03 43 23.78 +26 47 36.3          19.7   EW092704
     K05W55Z  C2005 11 29.27947 03 43 31.23 +26 46 02.3          19.7   EW092704
     K05W55Z  C2005 11 29.29278 03 43 38.94 +26 44 23.4          19.9   EW092704
     K05W55Z  C2005 11 29.30570 03 43 46.44 +26 42 48.5          19.8   EW092704
     K05W55Z  C2005 11 29.98426 03 50 46.01 +25 19 28.4                 EW092J95
     K05W55Z  C2005 11 29.98693 03 50 47.55 +25 19 08.6                 EW092J95
     K05W55Z  C2005 11 29.98961 03 50 49.06 +25 18 49.3          19.6 R EW092J95

Observer details:
704 Lincoln Laboratory ETS, New Mexico.  Observers M. Bezpalko, L. Manguso,
    D. Torres, R. Kracke, A. Milner, H. Love.  Measurers J. Stuart, R. Sayer,
    J. Evans, J. Kommers.  1.0-m f/2.15 reflector + CCD.
J95 Great Shefford.  Observer P. Birtwhistle.  0.40-m f/6.0 Schmidt-Cassegrain
    + CCD.

Orbital elements:
2005 WZ55
Epoch 2006 Mar. 6.0 TT = JDT 2453800.5                  MPC
M  47.22873              (2000.0)            P               Q
n   0.43859570     Peri.  165.16308     +0.57463376     -0.80668147
a   1.7156412      Node   249.57941     +0.73507327     +0.58288876
e   0.3890956      Incl.    8.47164     +0.35981013     +0.09749714
P   2.25           H   24.0           G   0.15           U   6
Residuals in seconds of arc
051128 704  0.1+  0.6+    051129 704  0.3-  0.6-    051129 J95  0.1-  0.1+
051128 704  0.4+  0.7-    051129 704  0.2+  0.1+    051129 J95  0.3+  0.2-
051128 704  0.0   0.2-    051129 704  0.1+  0.5+    051129 J95  0.1+  0.1+
051128 704  0.3-  0.2-    051129 704  0.0   0.3-
051128 704  0.2-  0.5+    051129 704  0.1+  0.2+

Ephemeris:
2005 WZ55                a,e,i = 1.72, 0.39, 8                   q = 1.0481
Date    TT    R. A. (2000) Decl.     Delta      r     Elong.  Phase     V
2005 11 26    03 05.95   +33 17.3    0.0673   1.051   161.7    17.2    19.2
2005 12 06    04 40.82   +14 02.1    0.0797   1.064   171.3     8.1    19.2
2005 12 16    05 29.35   +01 54.8    0.110    1.087   158.6    19.3    20.4
2005 12 26    05 54.72   -03 28.4    0.149    1.118   152.5    23.9    21.2
2006 01 05    06 09.99   -05 10.1    0.196    1.156   149.3    25.7    22.0

Timothy B. Spahr             (C) Copyright 2005 MPC           M.P.E.C. 2005-W92

Read MPEC 2005-W91 Read MPEC 2005-W93


MPEC number:

Enter an MPEC number in one of the following forms:

  • 1997-B01 (the full form)
  • J97B01 (the packed version of the full form)
  • B01 (the abbreviated form)

Valid HTML 4.01!